DW6942 Weather Reports


time (UTC)temp
F
wind
direction
speed
knots
gust
knots
rain 1hr
in
rain 24hr
in
rain mn
in
humidity
%
barometer
mb
20260506110038 0 0.0 0.0 0.00 0.00 0.00 1010.3
20260506104534 0 0.0 0.0 0.00 0.00 0.00 1010.1
20260506103030 0 0.0 0.0 0.00 0.00 0.00 1009.9
20260506101529 0 0.0 0.0 0.00 0.00 0.00 1010.0
20260506100021 0 0.0 0.0 0.00 0.00 0.00 1010.0
20260506094517 76 141 1.7 6.1 0.00 0.00 0.00 84 1009.7
20260506093017 76 125 1.7 5.2 0.00 0.00 0.00 85 1009.6
20260506091517 76 235 0.0 3.5 0.00 0.00 0.00 85 1009.6
20260506090016 76 117 0.9 6.1 0.00 0.00 0.00 85 1009.5
20260506084514 76 179 0.0 2.6 0.00 0.00 0.00 84 1009.3
20260506083013 76 224 0.9 3.5 0.00 0.00 0.00 84 1009.6
20260506081510 76 155 0.0 4.3 0.00 0.00 0.00 84 1009.7
20260506073004 76 198 0.0 2.6 0.00 0.00 0.00 84 1010.2
20260506071505 76 197 0.9 5.2 0.00 0.00 0.00 83 1010.6
20260506061601 76 148 0.0 3.5 0.00 0.00 0.00 83 1010.7
20260506060104 76 117 0.0 3.5 0.00 0.00 0.00 83 1010.6
20260506044551 77 210 0.9 3.5 0.00 0.00 0.00 81 1010.5
20260506043048 77 306 0.0 6.1 0.00 0.00 0.00 80 1010.5
20260506041549 77 238 0.0 2.6 0.00 0.00 0.00 80 1010.6
20260506040058 78 228 0.0 3.5 0.00 0.00 0.00 80 1010.3
20260506034549 78 127 0.9 3.5 0.00 0.00 0.00 80 1010.2
20260506033042 78 143 0.0 5.2 0.00 0.00 0.00 79 1009.9
20260506031554 78 210 0.9 5.2 0.00 0.00 0.00 79 1009.9
20260506030039 78 246 0.9 4.3 0.00 0.00 0.00 79 1009.8
20260506024539 78 231 0.9 4.3 0.00 0.00 0.00 78 1009.6
20260506023038 78 230 0.9 5.2 0.00 0.00 0.00 78 1009.3
20260506021538 79 124 1.7 4.3 0.00 0.00 0.00 78 1008.9
20260506020038 79 207 0.9 3.5 0.00 0.00 0.00 77 1008.7
20260506014536 79 210 0.9 6.1 0.00 0.00 0.00 77 1008.6
20260506013036 79 156 0.9 5.2 0.00 0.00 0.00 77 1008.3
20260506011538 79 153 1.7 6.1 0.00 0.00 0.00 77 1008.1
20260506010041 80 126 0.0 6.1 0.00 0.00 0.00 76 1008.0
20260506004536 80 250 0.9 3.5 0.00 0.00 0.00 75 1007.8
20260506003037 80 121 0.9 6.1 0.00 0.00 0.00 75 1007.8
20260506001532 81 271 1.7 8.7 0.00 0.00 0.00 75 1007.9
20260506000032 81 210 0.9 6.1 0.00 0.00 0.00 75 1007.7
20260505234530 81 139 0.9 4.3 0.00 0.00 0.00 75 1007.8
20260505233030 81 251 2.6 9.6 0.00 0.00 0.00 74 1007.6
20260505231544 82 252 2.6 8.7 0.00 0.00 0.00 74 1007.7
20260505230031 82 127 1.7 8.7 0.00 0.00 0.00 74 1007.8
20260505224528 82 176 0.9 6.1 0.00 0.00 0.00 74 1007.7
20260505223027 83 163 2.6 6.1 0.00 0.00 0.00 74 1007.6
20260505221526 82 242 1.7 6.1 0.00 0.00 0.00 74 1007.8
20260505220028 83 148 1.7 3.5 0.00 0.00 0.00 73 1007.7
20260505214527 83 133 1.7 7.0 0.00 0.00 0.00 72 1008.0
20260505213019 83 242 3.5 7.8 0.00 0.00 0.00 72 1008.3
20260505211518 83 215 1.7 7.0 0.00 0.00 0.00 73 1008.5
20260505210023 83 199 1.7 7.0 0.00 0.00 0.00 73 1008.6
20260505204513 84 132 0.9 9.6 0.00 0.00 0.00 73 1008.8
20260505203011 83 248 2.6 8.7 0.00 0.00 0.00 72 1009.1
20260505201510 83 248 0.9 8.7 0.00 0.00 0.00 74 1009.2
20260505200013 83 106 1.7 6.1 0.00 0.00 0.00 72 1009.4
20260505194506 83 246 3.5 9.6 0.00 0.00 0.00 72 1009.7
20260505193003 82 141 2.6 7.8 0.00 0.00 0.00 74 1009.8
20260505191501 82 229 0.9 6.1 0.00 0.00 0.00 75 1009.9
20260505184559 81 167 2.6 7.8 0.00 0.00 0.00 75 1010.1
20260505183055 80 138 3.5 10.4 0.00 0.00 0.00 77 1010.2
20260505181557 79 135 0.9 3.5 0.00 0.00 0.00 78 1010.3
20260505180049 79 147 1.7 6.1 0.00 0.00 0.00 78 1010.4
20260505174555 78 100 0.9 6.1 0.00 0.00 0.00 79 1010.5
20260505173048 79 129 0.9 7.8 0.00 0.00 0.00 79 1010.6
20260505171551 79 229 1.7 10.4 0.00 0.00 0.00 79 1010.8
20260505170044 78 300 0.9 4.3 0.00 0.00 0.00 81 1010.7
20260505164552 77 236 0.9 2.6 0.00 0.00 0.00 81 1010.9
20260505163050 77 238 0.0 2.6 0.00 0.00 0.00 82 1011.0
20260505161539 76 122 0.0 4.3 0.00 0.00 0.00 83 1010.9
20260505153036 76 134 2.6 7.8 0.00 0.00 0.00 80 1010.7
20260505151536 76 236 1.7 5.2 0.00 0.00 0.00 80 1010.6
20260505130112 0 0.0 0.0 0.00 0.00 0.00 1010.3
20260505124601 0 0.0 0.0 0.00 0.00 0.00 1009.9
20260505123051 0 0.0 0.0 0.00 0.00 0.00 1009.8
20260505121548 0 0.0 0.0 0.00 0.00 0.00 1010.0
20260505120045 0 0.0 0.0 0.00 0.00 0.00 1009.8
20260505114537 0 0.0 0.0 0.00 0.00 0.00 1009.5
20260505113032 0 0.0 0.0 0.00 0.00 0.00 1009.8
20260505111535 0 0.0 0.0 0.00 0.00 0.00 1009.9